Погода в Щеглово

Россия / Новосибирская область     55°20′59″N   76°33′51″E
темп.,
°C
ветер,
м/с
пор.,
м/с
влажн.,
%
обл.,
%
осадки,
мм/ч
давл.,
гПа
погр.,
м
13 апреля, вт
вт1301:00+1сз411100100 0.9 1031284
04:00+1сз37100100 0.0 1032140
07:00+1ссз5899100 0.0 1034274
10:00+1сз57100100 0.0 1036314
13:000зсз48100100 0.0 1037230
16:00+1зсз59100100 0.0 1037287
19:00+2зсз61098100 0.0 1037414
22:00+2зсз5893100 0.0 1038297
14 апреля, ср
ср1401:00+1з41099100 0.0 1037387
04:00+1зюз5119512 0.0 1035265
07:000зюз5119598 0.0 1034206
10:00+1зюз61495100 0.0 1033331
13:00+3зюз71599100 0.0 1030417
16:00+5зюз71594100 0.0 1028493
19:00+6з512908 0.0 1027383
22:00+4зюз4896100 0.0 1028136
15 апреля, чт
чт1501:00+4з3797100 0.0 1027108
04:00+4з3597100 0.0 102677
07:00+4зюз3596100 0.0 102679
10:00+4зюз3797100 0.0 1025135
13:00+10зюз5784100 0.0 1023408
16:00+14зюз697227 0.1 10211238
19:00+14з58705 0.3 1019324
22:00+9зюз33815 0.0 101941
16 апреля, пт
пт1601:00
04:00+7зюз489121 0.0 1017124
07:00+6юз410945 0.0 1016162
10:00+10зюз611855 0.0 1014368
13:00+14зюз6966100 0.0 1013741
16:00+16з675785 0.0 10121294
19:00+15сз466463 0.1 1011530
22:00+6св71086100 0.1 1013476
17 апреля, сб
сб1701:00+5св71087100 0.2 1011433
04:00+1св81296100 1.5 1012570
07:00−2св81395100 4.1 1013642
10:00−3св81292100 0.8 1015640
13:00−1св7982100 1.1 1015901
16:00−1св6777100 0.1 10161048
19:000всв4574100 0.1 1016846
22:00−2в3686100 0.1 1017244